Location: Brachstadt
(48.6975°N, 10.6755°E)
Time: 08:06:32
(UTC+00:00)

Okean 2 Rocket - Pass Details

Date: 18 September 2020
Orbit: 616 x 642 km, 82.5° (Epoch: 24 October)

Event Time Altitude Azimuth Distance (km) Brightness Sun altitude
Rises 18:03:31 0° 158° (SSE) 2,934 6.2 -7.5°
Reaches altitude 10° 18:06:00 10° 146° (SE) 2,027 5.3 -7.9°
Maximum altitude 18:09:48 27° 89° (E) 1,222 4.0 -8.5°
Drops below altitude 10° 18:13:35 10° 31° (NNE) 2,030 5.5 -9.1°
Sets 18:16:04 0° 20° (NNE) 2,939 6.5 -9.5°
